COSMOS 1275 DEB

Satellite information

Favourite Embed

Satellite Type and Status

DEBRISIN ORBIT

Key statistics

Satellite COSMOS 1275 DEB at a glance.

Uptime

16102

Days in orbit

Revolutions

≈ 14.9

Per day

Orbit

LEO

Low Earth Orbit

Inclination

82.8

Latest

Satellite identification and parameters

Extended collection of information and parameters for COSMOS 1275 DEB.

Object identification

Identified? True

Debris? True

Object name: COSMOS 1275 DEB

International designator: 1981-053HD

Object number (NORAD): 13809

Object ID (CCSDS): 13809

Country: COMMONWEALTH OF INDEPENDENT STATES (CIS)

Current information (Y/N): Y

RCS size: SMALL

Orbital parameters

Period: 96.505 minutes

Inclination: 82.8091 deg

SMA: 6969.377 km

Apoapsis: 602.922 km

Periapsis: 579.561 km

RAAN: 307.9079 deg

Eccentricy: 0.001676

Argument of periapsis: 247.9276 deg

Mean anomaly: 112.0165 deg

Mean motion: 14.92147806 rev/day

Mean motion (dot): 0.00017784 rev/day2

B* drag term: 0.0017388 1/REarth

Two-line elements (TLE)

Creation date: July 4, 2025, 6:39 p.m.

Reference frame: TEME

Reference center: EARTH

Epoch: July 4, 2025, 12:31 p.m. UTC

TLE line 0: 0 COSMOS 1275 DEB

TLE line 1: 1 13809U 81053HD 25185.52157605 .00017784 00000-0 17388-2 0 9996

TLE line 2: 2 13809 82.8091 307.9079 0016760 247.9276 112.0165 14.92147806223457

Live tracking on map

Real-time ground track for satellite COSMOS 1275 DEB.

In-orbit conjunctions

A list of the most updated potential collisions computed for object COSMOS 1275 DEB.

Target Orbit TCA Probability of collision Miss distance Type
SL-14 R/B LEO 2025-05-22 07:10:37 0.0002641441 273.0 (m) ROCKET BODY

Associated space launch

Navigation satellite providing location information for the Tsiklon-B navigation system

COSMOS 1275 DEB was lifted into orbit during the mission ‘Kosmos-3M | Parus 27’, on board a Kosmos-3M space rocket.

The launch took place on June 4, 1981, 3:41 p.m. from 132/2.

For more information about the launch, click the button.

Launch to space Kosmos-3M | Parus 27
Kosmos-3M | Parus 27

Agency: N/A

Status: Launch Successful

Launch date: June 4, 1981, 3:41 p.m. UTC

Rocket: Kosmos-3M

Launch pad: 132/2

Location: Plesetsk Cosmodrome, Russian Federation

...

Latest news about this satellite

There are no fresh news available about this satellite. Check back as we update our databases every day.


Newsletter sign-up

Weekly statistics, charts and insights to help you stay on top of the space industry.